GPS BIIF-7 (PRN 09)

Last updated on Wed Jun 24 2026 00:03:27 GMT+0000 (Coordinated Universal Time)

1 40105U 14045A 26173.03942899 -.00000044 00000+0 00000+0 0 9994 2 40105 55.3562 88.2716 0033545 118.2165 242.1273 2.00558750 86179
UTC large
Height (km)
Speed (km/s)
/
Latitude / Longitude
Inclination (degrees)
Orbital Period (minutes)
Azimuth
Elevation
Range (km)
Doppler Factor

Next 0 passes for location: London (51.5072 / 0.1276)

No passes found over London.
GPS BIIF-7 (PRN 09)